Skip Page Navigation
NASA JPL Caltech
NASA Logo - Jet Propulsion Laboratory + View the NASA Portal
+ Center for Near-Earth Object Studies
JPL Home Earth Solar System Stars & Galaxies Technology
JPL Solar System Dynamics
BODIES ORBITS EPHEMERIDES TOOLS PHYSICAL DATA DISCOVERY FAQ SITE MAP
JPL Small-Body Database Browser
Search: [ help ]  
(2020 ML)
Classification: Apollo [NEO]          SPK-ID: 54017476
Ephemeris | Orbit Diagram | Orbital Elements | Mission Design | Physical Parameters | Close-Approach Data ]

[ hide orbit diagram ]

For accurate long-term ephemerides, please instead use our Horizons system.This orbit viewer was implemented using two-body methods, and hence should not be used for determining accurate long-term trajectories (over several years or decades) or planetary encounter circumstances.


[ revert to old Java-based viewer ]

Orbital Elements at Epoch 2459000.5 (2020-May-31.0) TDB
Reference: JPL 8 (heliocentric ecliptic J2000)
 Element Value Uncertainty (1-sigma)   Units 
e .2259445914171327 8.2895e-05  
a 1.312194862846121 0.00014111 au
q 1.015711530700693 4.5614e-07 au
i 3.201781963527778 0.00091695 deg
node 127.9093844468072 0.00060338 deg
peri 185.7430674444813 0.00075292 deg
M 318.3513921778847 0.0074488 deg
tp 2459064.017575841824
(2020-Aug-02.51757584)
0.0011145 TDB
period 549.0298115298535
1.50
0.088563
0.0002425
d
yr
n .655702099302899 0.00010577 deg/d
Q 1.608678194991548 0.000173 au
  Orbit Determination Parameters
   # obs. used (total)      35  
   data-arc span      38 days  
   first obs. used      2020-06-17  
   last obs. used      2020-07-25  
   planetary ephem.      DE431  
   SB-pert. ephem.      SB431-N16  
   condition code      6  
   norm. resid. RMS      .46319  
   source      ORB  
   producer      Otto Matic  
   solution date      2020-Jul-26 06:43:29  

Additional Information
 Earth MOID = .00195683 au 
 Jupiter MOID = 3.63673 au 
 T_jup = 4.942 
[ show covariance matrix ]

Ephemeris | Orbit Diagram | Orbital Elements | Mission Design | Physical Parameters | Close-Approach Data ]

Physical Parameter Table
Parameter Symbol Value Units Sigma Reference Notes
absolute magnitude H 25.866   .67924 8 autocmod 2.8

[ hide close-approach data ]
Close-Approach Data   ...sorted by Date/Time (TDB)
Date/Time (TDB) Time Uncertainty
(days_HH:MM)
Body Nominal Distance (au) Minimum Distance (au) Maximum Distance (au) V-relative (km/s) V-infinity (km/s) JD (TDB) Time Uncertainty (minutes) Semi-major axis (km) Semi-minor axis (km) range-LOV angle (deg) N-sigma BP Orbit Ref. Reference Modified
1908-Jul-07 23:45 1_15:32 Mars 0.0840632352996741 0.0805289885821453 0.0877224494817206 1.75119462429687 1.74924878477057 2418130.489245953 2372.03825650487 241514.28460435 6.48927003986638 41.9736394952733 1547870.78485419 T 8 CATAB v2.0f-lin.ifort 2020-Jul-26 06:43:31 2020-Jul-26 06:43
1922-Mar-25 17:35 12:32 Earth 0.485975551804398 0.484132745110113 0.487818930555832 7.31907627545749 7.31832713390162 2423139.232825642 752.264967941152 95594.8102380609 11.5689939225639 -16.017114807719 917123.466055914 T 8 CATAB v2.0f-lin.ifort 2020-Jul-26 06:43:31 2020-Jul-26 06:43
1925-Apr-04 11:54 12:38 Earth 0.44520705331965 0.443273037146191 0.447141482055786 6.49936895467221 6.49844806013304 2424244.995856020 757.800317063955 98791.4783550124 11.3722461201833 -12.6015981968403 604757.08911173 T 8 CATAB v2.0f-lin.ifort 2020-Jul-26 06:43:31 2020-Jul-26 06:43
1925-Oct-02 18:56 05:10 Earth 0.495527449850584 0.490026005912206 0.501029475522572 18.2946991066176 18.294405190869 2424426.288831172 310.189418942059 275652.566811096 10.834946557207 5.58805259024996 548381.143971305 T 8 CATAB v2.0f-lin.ifort 2020-Jul-26 06:43:31 2020-Jul-26 06:43
1928-Apr-15 23:45 12:35 Earth 0.396617508992269 0.394653100545413 0.398582192318936 5.47852135493654 5.47729497305106 2425352.489575813 754.907761313672 99338.291621537 10.7609951641274 -9.78475571131935 401747.694229758 T 8 CATAB v2.0f-lin.ifort 2020-Jul-26 06:43:31 2020-Jul-26 06:43
1928-Sep-26 14:04 04:35 Earth 0.377758280627831 0.373130661519171 0.38238673647909 14.845768113121 14.8452929938558 2425516.085885638 274.903976633318 232478.212396833 10.9635037677662 6.9479993697074 491258.141572339 T 8 CATAB v2.0f-lin.ifort 2020-Jul-26 06:43:31 2020-Jul-26 06:43
1931-May-01 05:19 14:02 Earth 0.339723484874642 0.337812193780108 0.341634866315492 4.05579290508665 4.05385864625813 2426462.721797396 841.690367912426 95710.4906686895 9.55120153040142 -6.51535316294727 188491.465744126 T 8 CATAB v2.0f-lin.ifort 2020-Jul-26 06:43:31 2020-Jul-26 06:43
1931-Sep-21 01:12 04:05 Earth 0.263298802584069 0.259679844906445 0.266919081545051 11.4860634816934 11.4851824147291 2426605.550259601 245.309070959628 182876.597758206 10.7074299142309 9.29041118551386 447154.390780905 T 8 CATAB v2.0f-lin.ifort 2020-Jul-26 06:43:31 2020-Jul-26 06:43
1934-May-28 18:30 3_16:06 Earth 0.270047469360531 0.2682134418181 0.271972488878464 1.18519687910951 1.17684248208851 2427586.270760396 5286.16892983823 269948.186813072 6.72682885001174 80.9234805267167 238718.44471656 T 8 CATAB v2.0f-lin.ifort 2020-Jul-26 06:43:31 2020-Jul-26 06:43
1934-Sep-13 06:44 03:47 Earth 0.158032963233164 0.155621434933327 0.160446666543526 8.30720471587823 8.30517487112765 2427693.780802621 227.209216665772 123809.480973354 9.90023057508005 13.7238014824788 414635.549079619 T 8 CATAB v2.0f-lin.ifort 2020-Jul-26 06:43:31 2020-Jul-26 06:43
1937-Sep-02 13:13 02:57 Earth 0.0704890575294235 0.0696050121595002 0.0713754602202381 5.56181773090389 5.55501725212966 2428779.050548807 177.088697901 48603.0843557256 7.31987503842442 24.8551045829554 471077.970312315 T 8 CATAB v2.0f-lin.ifort 2020-Jul-26 06:43:31 2020-Jul-26 06:43
1940-Aug-21 07:47 08:15 Earth 0.0289547355915612 0.0282434522646772 0.0296670857983381 4.27869859519247 4.25713720809419 2429862.824469395 494.672199891753 36566.5142460511 11.1088809341347 14.3461208973072 81100.1520475349 T 8 CATAB v2.0f-lin.ifort 2020-Jul-26 06:43:31 2020-Jul-26 06:43
1943-Sep-01 04:39 05:48 Earth 0.0605077112128316 0.0595590241734517 0.0614572048980815 5.26221397249678 5.25383908738084 2430968.693523328 348.113260269538 48594.5383141907 10.0192272758863 13.4146514933628 158082.846700907 T 8 CATAB v2.0f-lin.ifort 2020-Jul-26 06:43:31 2020-Jul-26 06:43
1946-Sep-12 05:26 01:52 Earth 0.142745118571064 0.142367876749771 0.143122368758063 7.85725752251647 7.85488152614612 2432075.726190749 112.110061628837 18890.5159601554 13.0772616544888 -5.4635176740683 109901.070446796 T 8 CATAB v2.0f-lin.ifort 2020-Jul-26 06:43:31 2020-Jul-26 06:43
1949-May-05 23:06 01:44 Earth 0.332085356477212 0.331946881975125 0.33222383653463 3.69117140855431 3.68899707408649 2433042.462182463 103.520220680843 7230.06393746807 20.7449678397341 17.9204263926111 210265.026114861 T 8 CATAB v2.0f-lin.ifort 2020-Jul-26 06:43:31 2020-Jul-26 06:43
1949-Sep-19 16:04 00:30 Earth 0.246046524030114 0.245657506179137 0.246435661096015 10.9775008248846 10.9765142929243 2433179.169463767 29.5832333762758 21198.3918562636 25.9918444371665 23.7727551115267 423007.850331228 T 8 CATAB v2.0f-lin.ifort 2020-Jul-26 06:43:31 2020-Jul-26 06:43
1952-Apr-20 14:24 03:19 Earth 0.392547115446062 0.392081389749977 0.393012840504643 5.23442047721003 5.23312357937708 2434123.100212156 198.737868022378 23210.4402549887 12.2796337816173 -1.30970312937796 44460.6551615999 T 8 CATAB v2.0f-lin.ifort 2020-Jul-26 06:43:31 2020-Jul-26 06:43
1952-Sep-25 21:53 00:21 Earth 0.359801297487959 0.358651902973693 0.360950842748048 14.3531736270529 14.3526576748168 2434281.411954385 21.4016823408814 58484.1055041026 17.4541335248367 11.4678113120999 477571.555122901 T 8 CATAB v2.0f-lin.ifort 2020-Jul-26 06:43:31 2020-Jul-26 06:43
1955-Apr-09 09:34 04:25 Earth 0.444609197449907 0.443939947848881 0.44527845933523 6.33306726997561 6.332120918938 2435206.898334498 264.55518847108 33575.967733737 12.0205431849559 -6.51836144314214 299818.034350528 T 8 CATAB v2.0f-lin.ifort 2020-Jul-26 06:43:31 2020-Jul-26 06:43
1955-Oct-02 21:06 01:05 Earth 0.477815936125022 0.475945762126675 0.479686255171891 17.8153077396261 17.8149947267427 2435383.379437067 64.8170704311314 94181.0681748411 15.137583966882 8.02324753645163 538676.141282266 T 8 CATAB v2.0f-lin.ifort 2020-Jul-26 06:43:31 2020-Jul-26 06:43
1958-Mar-29 22:50 05:12 Earth 0.48847939939489 0.487693322393367 0.489265519497211 7.20211025025127 7.2013528434942 2436292.451586253 312.172857575108 39861.8057045286 12.0105274103543 -10.5455193154251 569372.342435866 T 8 CATAB v2.0f-lin.ifort 2020-Jul-26 06:43:31 2020-Jul-26 06:43
2002-Dec-07 06:56 21:48 Earth 0.485895209827375 0.482089700777106 0.489702712110052 7.39677529011333 7.396033896092 2452615.789042965 1307.88913418218 196056.846180045 7.16123737387455 -14.5494082827028 1345110.87187043 T 8 CATAB v2.0f-lin.ifort 2020-Jul-26 06:43:31 2020-Jul-26 06:43
2005-Jun-02 18:47 14:13 Earth 0.470385129489645 0.458851261890317 0.481921672640171 17.5539743670919 17.5536516757561 2453524.282970598 853.268048596589 577927.998339994 13.4576213149159 -5.5701248841316 410862.370745838 T 8 CATAB v2.0f-lin.ifort 2020-Jul-26 06:43:31 2020-Jul-26 06:43
2005-Nov-27 03:32 1_02:08 Earth 0.441892767142431 0.437191698380073 0.446597317486147 6.54203165051542 6.54110989993638 2453701.647415567 1568.26753005897 242530.729021495 8.70601115009345 -14.8615928689629 921816.217403777 T 8 CATAB v2.0f-lin.ifort 2020-Jul-26 06:43:31 2020-Jul-26 06:43
2008-Jun-08 16:38 15:21 Earth 0.354098570456987 0.342226552782047 0.365974150380241 14.167812941421 14.1672818203767 2454626.192990644 921.424073648119 594741.246389066 10.404940602139 -5.43365266705106 371901.881929956 T 8 CATAB v2.0f-lin.ifort 2020-Jul-26 06:43:31 2020-Jul-26 06:43
